ARIANE 5 R/B

Satellite information

Favourite Embed

Satellite Type and Status

ROCKET BODYIN ORBIT

Key statistics

Satellite ARIANE 5 R/B at a glance.

Uptime

8639

Days in orbit

Revolutions

≈ 14.4

Per day

Orbit

SSO

Sun Synchronous Orbit

Inclination

98.8

Latest

Satellite identification and parameters

Extended collection of information and parameters for ARIANE 5 R/B.

Object identification

Identified? True

Debris? False

Object name: ARIANE 5 R/B

International designator: 2002-009B

Object number (NORAD): 27387

Object ID (CCSDS): 27387

Country: FRANCE (FR)

Current information (Y/N): Y

RCS size: LARGE

Orbital parameters

Period: 100.228 minutes

Inclination: 98.8192 deg

SMA: 7147.491 km

Apoapsis: 793.077 km

Periapsis: 745.636 km

RAAN: 305.521 deg

Eccentricy: 0.00331872

Argument of periapsis: 100.2148 deg

Mean anomaly: 260.2783 deg

Mean motion: 14.36720609 rev/day

Mean motion (dot): 0.00000141 rev/day2

B* drag term: 0.000062979415 1/REarth

Two-line elements (TLE)

Creation date: Oct. 25, 2025, 3:11 a.m.

Reference frame: TEME

Reference center: EARTH

Epoch: Oct. 24, 2025, 10:35 p.m. UTC

TLE line 0: 0 ARIANE 5 R/B

TLE line 1: 1 27387U 02009B 25297.94143073 .00000141 00000-0 62979-4 0 9997

TLE line 2: 2 27387 98.8192 305.5210 0033187 100.2148 260.2783 14.36720609239538

Live tracking on map

Real-time ground track for satellite ARIANE 5 R/B.

In-orbit conjunctions

A list of the most updated potential collisions computed for object ARIANE 5 R/B.

Target Orbit TCA Probability of collision Miss distance Type
METEOR 2-8 DEB LEO 2025-08-26 01:35:25 0.000145335 172.0 (m) DEBRIS
FENGYUN 1C DEB SSO 2025-02-18 14:35:15 0.0001567935 319.0 (m) DEBRIS

Associated space launch

A large Earth-Observing satellite in sun synchronous polar orbit.

ARIANE 5 R/B was lifted into orbit during the mission ‘Ariane 5 G | Envisat’, on board a Ariane 5 G space rocket.

The launch took place on March 1, 2002, 1:07 a.m. from Ariane Launch Area 3.

For more information about the launch, click the button.

Launch to space Ariane 5 G | Envisat
Ariane 5 G | Envisat

Agency: N/A

Status: Launch Successful

Launch date: March 1, 2002, 1:07 a.m. UTC

Rocket: Ariane 5 G

Launch pad: Ariane Launch Area 3

Location: Guiana Space Centre, French Guiana

...

Latest news about this satellite

There are no fresh news available about this satellite. Check back as we update our databases every day.


Newsletter sign-up

Weekly statistics, charts and insights to help you stay on top of the space industry.